STARLINK-1255, 45399

Orbit data source: Space-Track

STARLINK-1255, 45399 is a payload satellite owned by SpaceX/Seattle (US) in LEO that was launched on Wed, 18 Mar 2020 UTC via an FALCON 9 launch vehicle from the Air Force Eastern Test Range (AFETR). Payload-class satellites include a variety of spacecraft equipped with specific instruments for various scientific and technological missions. These include communications satellites like Starlink; space stations such as the ISS; scientific satellites like the Hubble; Earth observation satellites from companies like Planet Labs, Umbra, and HawkEye 360; GPS; miniature CubeSats for education and research; and military/defense satellites.

Loading next visibility...
Identifier
45399, 2020-019AR
Orbit
LEO
Country
Flag of USUS
Related business
Manufacturer
SpaceX/Seattle
Mission
Partially operational Commercial Communications
Bus & Motor
STARLINK, Unknown motor
Mass
260 kg wet, ~248 kg dry
Launch date (UTC)
2020-03-18 (6 years ago)
Launch vehicle
FALCON 9
Launch site
Air Force Eastern Test Range (AFETR)
Object type
Payload
Rocket body
Debris
Shape & HBR
Box + 1 Pan, 10.1 m
Radar Cross Section
13.562 m², Large (>1 m²)

Expand to show TLE details & history
Last TLE update: 1 day ago

TLE from 1 day ago
0 STARLINK-1255
1 45399U 20019AR  26072.29472361  .00098125  00000-0  15591-2 0  9991
2 45399  53.0419  85.3824 0001761   0.3211 359.7799 15.52560572330997
Epoch: 2026-03-13T07:04Z
TLE epoch observation values (Epoch: 2026-03-13T07:04:24.119Z)
Latitude
-0.00002°
Longitude
168.34957°
Altitude
408.953 km
Speed
7.667 km/s
True Right ascension
05h 41m 31s
True Declination
0° 00' 00"
Sunlit
Object was in daylight at epoch
Visualization orbit readout
Latitude
Unknown
Longitude
Unknown
Altitude
Unknown
Speed
Unknown
Apparent Right ascension
Unknown
Apparent Declination
Unknown
Sunlit
N/A
Visualization observer readout
Local Sidereal Time
17:00:09
Azimuth
Unknown
Elevation
Unknown
Doppler factor
Unknown
Orbital elements
Apogee altitude
410.726 km
Perigee altitude
408.336 km
Semi-major axis
6,787.668 km
Eccentricity
0.00018
Inclination
53.0419°
RAAN
85.3824°
Arg. of periapsis
0.3211°
True anomaly
359.77982°
Mean anomaly
359.7799°
Eccentric anomaly
359.77986°
Mean motion
3.88117 °/min
Orbital period
92.76 mins
BSTAR
0.0015591
Loading maneuver chart data...
Computing Atmospheric mass density...

Documentation

Showing up to 5 results
|